sat.trackr.live / text

‹ back to catalog

STARLINK-33758

NORAD 64004 · 2025-101L

PAYLOAD ACTIVE UNKNOWN

§ Identity

Operator
Country
US
Launch date
2025-05-14
Launch site
AFETR
Launch vehicle
Mass (kg)
RCS (m²)

Purposes: comms

External: N2YO · Heavens-Above · Gunter

§ Orbital elements

Epoch: 2026-05-24T19:07:05.827008Z

Period
94.27 min
Inclination
43.0012°
Eccentricity
0.0002594
Mean motion
15.27590916 rev/d
Perigee alt
481.2 km
Apogee alt
484.8 km
Semi-major
6,861.2 km
B*
5.3884e-4
RAAN
288.2520°
Arg perigee
262.5669°
Mean anomaly
97.4888°
Rev number
5,869

§ Raw data

STARLINK-337581 64004U 25101L   26144.79659522  .00014600  00000+0  53884-3 0  99962 64004  43.0012 288.2520 0002594 262.5669  97.4888 15.27590916 58696

JSON: /api/v1/satellites/64004 · /tle

For live sub-satellite position, see the globe view (requires WebGL).

§ Visibility from observer

Set your observer location to see the next 7 days of passes ≥ 10°. The values pass through the URL so the page stays shareable.

No JS? Fill the form by hand. The geolocation button needs JavaScript.